Overview Statistics Trail Chart Weather Telemetry Raw packets
 

This is the latest recevied weather packets stored in our database for station/object K6LOT-13. If no packets are shown the sender has not sent any weather packets the latest 10 day(s).

<< 43 44 45 46 47 48 49 >>
Time Temp. Humidity Pressure Rain* Wind** Luminosity Snow
1788288523 28.89° C 54% 1017 hPa 0 mm - - -
1788288243 28.89° C 55% 1017 hPa 0 mm - - -
1788287596 27.78° C 57% 1017.2 hPa 0 mm - - -
1788287320 27.78° C 58% 1017.1 hPa 0 mm - - -
1788286984 27.22° C 59% 1017.2 hPa 0 mm - - -
1788286679 27.22° C 60% 1017.2 hPa 0 mm - - -
1788286674 27.22° C 60% 1017.2 hPa 0 mm - - -
1788286057 27.22° C 60% 1017.3 hPa 0 mm - - -
1788285781 27.22° C 61% 1017.2 hPa 0 mm - - -
1788285480 26.67° C 62% 1017.2 hPa 0 mm - - -
1788285134 26.67° C 63% 1017.2 hPa 0 mm - - -
1788284824 26.11° C 64% 1017.2 hPa 0 mm - - -
1788284713 25° C 67% 1017.3 hPa 0 mm - - -
1788283666 23.89° C 69% 1017.2 hPa 0 mm - - -
1788283625 24.44° C 68% 1017.2 hPa 0 mm - - -
1788282979 23.33° C 71% 1017.1 hPa 0 mm - - -
1788282673 23.33° C 72% 1017.1 hPa 0 mm - - -
1788282397 22.78° C 73% 1017.1 hPa 0 mm - - -
1788282060 22.22° C 74% 1017.1 hPa 0 mm - - -
1788281454 21.11° C 77% 1017 hPa 0 mm - - -
1788281449 21.11° C 76% 1017.1 hPa 0 mm - - -
1788280836 20.56° C 78% 1017.1 hPa 0 mm - - -
1788280561 20.56° C 78% 1017.1 hPa 0 mm - - -
1788280225 20.56° C 78% 1017.2 hPa 0 mm - - -
1788279915 20° C 78% 1017.2 hPa 0 mm - - -

* Rain latest hour (hover to see other rain measurements)
** Current wind speed in m/s (hover to see current wind gust speed)